TGW524 WSSS-VVPQ

Flight info

Callsign TGW524
Flight time 1h 19m
Altitude 32000
Route VMR9B VMR L642 ENREP M753 ADBOP HOTU1E
Aircraft A320/M-SDE3FGHIRWY/LB1

Departure

Time 2026-04-17 10:35
Airport Singapore Changi Airport (WSSS)

Arrival

Time 2026-04-17 11:54
Airport Phú Quốc International Airport (VVPQ)
Time Latitude Longitude Altitude Speed Heading
2026-04-17 09:51 1.36353 103.98872 31 ft 0 kts 113°
2026-04-17 10:19 1.36354 103.98871 30 ft 0 kts 113°
2026-04-17 10:19 1.36358 103.98861 30 ft 2 kts 113°
2026-04-17 10:19 1.36364 103.98846 30 ft 2 kts 113°
2026-04-17 10:20 1.36370 103.98832 30 ft 2 kts 113°
2026-04-17 10:20 1.36377 103.98817 30 ft 2 kts 113°
2026-04-17 10:20 1.36383 103.98802 30 ft 2 kts 113°
2026-04-17 10:20 1.36390 103.98788 30 ft 2 kts 142°
2026-04-17 10:21 1.36404 103.98781 30 ft 2 kts 176°
2026-04-17 10:21 1.36420 103.98781 30 ft 2 kts 192°
2026-04-17 10:21 1.36430 103.98784 30 ft 0 kts 205°
2026-04-17 10:22 1.36429 103.98783 30 ft 2 kts 205°
2026-04-17 10:22 1.36401 103.98770 30 ft 6 kts 205°
2026-04-17 10:22 1.36387 103.98734 30 ft 7 kts 275°
2026-04-17 10:23 1.36393 103.98687 30 ft 7 kts 253°
2026-04-17 10:23 1.36352 103.98651 30 ft 9 kts 201°
2026-04-17 10:23 1.36289 103.98627 30 ft 11 kts 202°
2026-04-17 10:23 1.36215 103.98595 30 ft 12 kts 204°
2026-04-17 10:24 1.36130 103.98558 30 ft 14 kts 203°
2026-04-17 10:24 1.36032 103.98517 30 ft 16 kts 202°
2026-04-17 10:24 1.35922 103.98471 30 ft 18 kts 203°
2026-04-17 10:24 1.35800 103.98420 30 ft 20 kts 203°
2026-04-17 10:25 1.35666 103.98363 30 ft 22 kts 203°
2026-04-17 10:25 1.35519 103.98301 30 ft 24 kts 203°
2026-04-17 10:25 1.35360 103.98234 30 ft 26 kts 202°
2026-04-17 10:25 1.35223 103.98178 30 ft 19 kts 200°
2026-04-17 10:26 1.35117 103.98134 30 ft 15 kts 204°
2026-04-17 10:26 1.35016 103.98089 30 ft 17 kts 204°
2026-04-17 10:26 1.34902 103.98041 31 ft 18 kts 202°
2026-04-17 10:26 1.34818 103.98012 31 ft 10 kts 176°
2026-04-17 10:27 1.34776 103.98063 31 ft 11 kts 111°
2026-04-17 10:27 1.34744 103.98139 31 ft 13 kts 113°
2026-04-17 10:27 1.34706 103.98228 33 ft 14 kts 113°
2026-04-17 10:27 1.34667 103.98320 41 ft 13 kts 113°
2026-04-17 10:28 1.34633 103.98400 46 ft 13 kts 114°
2026-04-17 10:28 1.34596 103.98485 43 ft 14 kts 114°
2026-04-17 10:28 1.34547 103.98598 31 ft 22 kts 113°
2026-04-17 10:28 1.34487 103.98741 30 ft 23 kts 111°
2026-04-17 10:29 1.34434 103.98863 30 ft 13 kts 113°
2026-04-17 10:29 1.34402 103.98924 30 ft 8 kts 136°
2026-04-17 10:29 1.34344 103.98919 30 ft 10 kts 204°
2026-04-17 10:29 1.34275 103.98890 30 ft 12 kts 202°
2026-04-17 10:30 1.34180 103.98850 30 ft 17 kts 203°
2026-04-17 10:30 1.34067 103.98803 30 ft 19 kts 202°
2026-04-17 10:30 1.33941 103.98751 30 ft 21 kts 203°
2026-04-17 10:30 1.33803 103.98691 30 ft 23 kts 202°
2026-04-17 10:31 1.33656 103.98631 30 ft 23 kts 202°
2026-04-17 10:31 1.33505 103.98566 30 ft 24 kts 202°
2026-04-17 10:31 1.33348 103.98499 30 ft 25 kts 202°
2026-04-17 10:31 1.33189 103.98435 30 ft 21 kts 202°
2026-04-17 10:32 1.33052 103.98375 30 ft 18 kts 201°
2026-04-17 10:32 1.32966 103.98352 30 ft 10 kts 165°
2026-04-17 10:32 1.32941 103.98377 30 ft 0 kts 116°
2026-04-17 10:32 1.32941 103.98379 30 ft 1 kts 116°
2026-04-17 10:33 1.32933 103.98396 30 ft 7 kts 115°
2026-04-17 10:33 1.32907 103.98458 30 ft 10 kts 112°
2026-04-17 10:33 1.32911 103.98511 30 ft 9 kts 48°
2026-04-17 10:33 1.32927 103.98520 30 ft 1 kts 23°
2026-04-17 10:34 1.33040 103.98566 30 ft 49 kts 23°
2026-04-17 10:34 1.33561 103.98787 31 ft 110 kts 23°
2026-04-17 10:34 1.34422 103.99150 31 ft 156 kts 23°
2026-04-17 10:34 1.35505 103.99614 348 ft 168 kts 25°
2026-04-17 10:35 1.36581 104.00060 937 ft 168 kts 24°
2026-04-17 10:35 1.37651 104.00510 1542 ft 169 kts 24°
2026-04-17 10:35 1.38769 104.00983 1929 ft 180 kts 24°
2026-04-17 10:35 1.39976 104.01495 2105 ft 202 kts 23°
2026-04-17 10:36 1.41347 104.02075 2306 ft 226 kts 23°
2026-04-17 10:36 1.42873 104.02721 2618 ft 250 kts 23°
2026-04-17 10:36 1.44538 104.03423 3101 ft 267 kts 23°
2026-04-17 10:36 1.46263 104.04151 3886 ft 271 kts 23°
2026-04-17 10:37 1.48081 104.04690 4684 ft 276 kts
2026-04-17 10:37 1.50007 104.04662 5461 ft 280 kts 349°
2026-04-17 10:37 1.51855 104.04032 6237 ft 283 kts 332°
2026-04-17 10:37 1.53599 104.03087 6976 ft 286 kts 331°
2026-04-17 10:38 1.55353 104.02135 7689 ft 289 kts 332°
2026-04-17 10:38 1.57135 104.01172 8404 ft 293 kts 332°
2026-04-17 10:38 1.58945 104.00195 9112 ft 297 kts 332°
2026-04-17 10:38 1.60756 103.99218 9790 ft 301 kts 332°
2026-04-17 10:39 1.62615 103.98214 10352 ft 308 kts 332°
2026-04-17 10:39 1.64568 103.97159 10490 ft 331 kts 332°
2026-04-17 10:39 1.66657 103.96031 10656 ft 350 kts 332°
2026-04-17 10:39 1.68831 103.94857 11079 ft 358 kts 332°
2026-04-17 10:40 1.71030 103.93670 11623 ft 362 kts 332°
2026-04-17 10:40 1.73254 103.92469 12177 ft 366 kts 332°
2026-04-17 10:40 1.75613 103.91500 12739 ft 369 kts 344°
2026-04-17 10:40 1.78141 103.91025 13317 ft 371 kts 356°
2026-04-17 10:41 1.80732 103.90864 13846 ft 374 kts 357°
2026-04-17 10:41 1.83340 103.90704 14314 ft 378 kts 356°
2026-04-17 10:41 1.85948 103.90541 14809 ft 381 kts 356°
2026-04-17 10:41 1.88634 103.90372 15303 ft 384 kts 357°
2026-04-17 10:42 1.91290 103.90205 15757 ft 388 kts 356°
2026-04-17 10:42 1.93982 103.90033 16243 ft 390 kts 356°
2026-04-17 10:42 1.96708 103.89860 16722 ft 393 kts 356°
2026-04-17 10:42 1.99447 103.89684 17172 ft 397 kts 356°
2026-04-17 10:43 2.02222 103.89506 17649 ft 400 kts 356°
2026-04-17 10:43 2.05004 103.89328 18129 ft 403 kts 356°
2026-04-17 10:43 2.07809 103.89149 18530 ft 407 kts 356°
2026-04-17 10:43 2.10647 103.88968 18970 ft 409 kts 356°
2026-04-17 10:44 2.13487 103.88789 19396 ft 411 kts 356°
2026-04-17 10:44 2.16357 103.88605 19816 ft 414 kts 356°
2026-04-17 10:44 2.19232 103.88418 20269 ft 416 kts 356°
2026-04-17 10:44 2.22135 103.88230 20721 ft 418 kts 356°
2026-04-17 10:45 2.25041 103.88045 21149 ft 420 kts 356°
2026-04-17 10:45 2.27973 103.87861 21608 ft 422 kts 356°
2026-04-17 10:45 2.30902 103.87677 22040 ft 424 kts 357°
2026-04-17 10:45 2.33860 103.87491 22440 ft 426 kts 357°
2026-04-17 10:46 2.36817 103.87301 22845 ft 428 kts 357°
2026-04-17 10:46 2.39801 103.87326 23223 ft 429 kts
2026-04-17 10:46 2.42755 103.87739 23561 ft 430 kts
2026-04-17 10:46 2.45730 103.88187 23873 ft 432 kts
2026-04-17 10:47 2.48703 103.88638 24177 ft 434 kts
2026-04-17 10:47 2.51703 103.89091 24482 ft 436 kts
2026-04-17 10:47 2.54702 103.89542 24779 ft 438 kts
2026-04-17 10:47 2.57714 103.89997 25073 ft 440 kts
2026-04-17 10:48 2.60751 103.90455 25366 ft 441 kts
2026-04-17 10:48 2.63788 103.90910 25657 ft 443 kts
2026-04-17 10:48 2.66852 103.91366 25943 ft 445 kts
2026-04-17 10:48 2.69914 103.91823 26220 ft 447 kts
2026-04-17 10:49 2.73002 103.92286 26497 ft 449 kts
2026-04-17 10:49 2.76087 103.92750 26758 ft 450 kts
2026-04-17 10:49 2.79199 103.93215 27021 ft 452 kts
2026-04-17 10:49 2.82309 103.93680 27277 ft 454 kts
2026-04-17 10:50 2.85444 103.94149 27537 ft 455 kts
2026-04-17 10:50 2.88577 103.94617 27790 ft 457 kts
2026-04-17 10:50 2.91737 103.95089 28054 ft 459 kts
2026-04-17 10:50 2.94894 103.95566 28315 ft 461 kts
2026-04-17 10:51 2.98076 103.96052 28577 ft 463 kts
2026-04-17 10:51 3.01259 103.96541 28830 ft 465 kts 10°
2026-04-17 10:51 3.04453 103.97030 29125 ft 465 kts 10°
2026-04-17 10:51 3.07657 103.97520 29505 ft 464 kts 10°
2026-04-17 10:52 3.10841 103.98005 29895 ft 464 kts 10°
2026-04-17 10:52 3.14035 103.98491 30224 ft 463 kts 10°
2026-04-17 10:52 3.17211 103.98973 30542 ft 462 kts
2026-04-17 10:52 3.20396 103.99457 30863 ft 462 kts
2026-04-17 10:53 3.23565 103.99940 31187 ft 461 kts
2026-04-17 10:53 3.26744 104.00423 31514 ft 461 kts
2026-04-17 10:53 3.29907 104.00905 31841 ft 460 kts
2026-04-17 10:53 3.33080 104.01388 32176 ft 460 kts
2026-04-17 10:54 3.36238 104.01868 32492 ft 460 kts
2026-04-17 10:54 3.39412 104.02346 32822 ft 460 kts
2026-04-17 10:54 3.42573 104.02817 33160 ft 460 kts
2026-04-17 10:54 3.45742 104.03289 33495 ft 460 kts
2026-04-17 10:55 3.48897 104.03761 33813 ft 459 kts
2026-04-17 10:55 3.52063 104.04232 34104 ft 459 kts
2026-04-17 10:55 3.55212 104.04700 34377 ft 458 kts
2026-04-17 10:55 3.58357 104.05168 34666 ft 457 kts
2026-04-17 10:56 3.61514 104.05639 34823 ft 458 kts
2026-04-17 10:56 3.67881 104.06591 34862 ft 466 kts
2026-04-17 10:57 3.74308 104.07557 34862 ft 466 kts
2026-04-17 10:57 3.80682 104.08514 34863 ft 466 kts
2026-04-17 10:58 3.87097 104.09471 34863 ft 466 kts
2026-04-17 10:58 3.93509 104.10426 34863 ft 466 kts
2026-04-17 10:59 3.99926 104.11384 34868 ft 466 kts
2026-04-17 10:59 4.06333 104.12346 34873 ft 467 kts
2026-04-17 11:00 4.12756 104.13312 34878 ft 467 kts
2026-04-17 11:00 4.19181 104.14275 34879 ft 467 kts
2026-04-17 11:01 4.25602 104.15239 34879 ft 466 kts
2026-04-17 11:01 4.32021 104.16202 34878 ft 466 kts
2026-04-17 11:02 4.38442 104.17163 34878 ft 466 kts
2026-04-17 11:02 4.44863 104.18121 34877 ft 466 kts
2026-04-17 11:03 4.51284 104.19087 34873 ft 467 kts
2026-04-17 11:03 4.56625 104.19890 34873 ft 467 kts
2026-04-17 11:04 4.63049 104.20854 34874 ft 467 kts
2026-04-17 11:04 4.69471 104.21822 34875 ft 466 kts
2026-04-17 11:05 4.75889 104.22783 34881 ft 466 kts
2026-04-17 11:05 4.82303 104.23741 34879 ft 466 kts
2026-04-17 11:06 4.88745 104.24421 34873 ft 466 kts 358°
2026-04-17 11:06 4.95204 104.24082 34869 ft 466 kts 356°
2026-04-17 11:07 5.01678 104.23730 34868 ft 466 kts 356°
2026-04-17 11:07 5.08159 104.23394 34870 ft 466 kts 356°
2026-04-17 11:08 5.14645 104.23049 34873 ft 467 kts 356°
2026-04-17 11:08 5.21136 104.22703 34878 ft 467 kts 356°
2026-04-17 11:09 5.27621 104.22360 34878 ft 466 kts 356°
2026-04-17 11:09 5.34100 104.22014 34876 ft 466 kts 356°
2026-04-17 11:10 5.43806 104.21497 34878 ft 466 kts 356°
2026-04-17 11:10 5.50285 104.21152 34874 ft 466 kts 356°
2026-04-17 11:11 5.56769 104.20809 34872 ft 466 kts 356°
2026-04-17 11:11 5.63254 104.20466 34871 ft 467 kts 356°
2026-04-17 11:12 5.69744 104.20126 34876 ft 467 kts 356°
2026-04-17 11:12 5.76231 104.19784 34878 ft 467 kts 356°
2026-04-17 11:13 5.82677 104.19438 34879 ft 467 kts 356°
2026-04-17 11:13 5.89168 104.19085 34881 ft 467 kts 356°
2026-04-17 11:14 5.95657 104.18734 34887 ft 467 kts 356°
2026-04-17 11:14 6.02138 104.18389 34885 ft 466 kts 356°
2026-04-17 11:15 6.08612 104.18047 34884 ft 466 kts 356°
2026-04-17 11:15 6.15081 104.17705 34882 ft 465 kts 356°
2026-04-17 11:16 6.21544 104.17358 34880 ft 465 kts 356°
2026-04-17 11:16 6.27992 104.17016 34878 ft 465 kts 356°
2026-04-17 11:17 6.34449 104.16671 34886 ft 464 kts 355°
2026-04-17 11:17 6.40900 104.16326 34887 ft 464 kts 355°
2026-04-17 11:18 6.47346 104.15983 34886 ft 464 kts 355°
2026-04-17 11:18 6.53789 104.15644 34884 ft 463 kts 355°
2026-04-17 11:19 6.60229 104.15302 34881 ft 463 kts 355°
2026-04-17 11:19 6.66667 104.14954 34882 ft 463 kts 355°
2026-04-17 11:20 6.73099 104.14605 34886 ft 463 kts 355°
2026-04-17 11:20 6.79527 104.14259 34883 ft 462 kts 355°
2026-04-17 11:21 6.85954 104.13921 34883 ft 462 kts 355°
2026-04-17 11:21 6.92377 104.13576 34883 ft 462 kts 355°
2026-04-17 11:22 6.98799 104.13231 34879 ft 462 kts 355°
2026-04-17 11:22 7.05175 104.12896 34881 ft 462 kts 355°
2026-04-17 11:23 7.11590 104.12573 34881 ft 461 kts 355°
2026-04-17 11:23 7.17999 104.12249 34879 ft 461 kts 355°
2026-04-17 11:24 7.24405 104.11909 34880 ft 461 kts 355°
2026-04-17 11:24 7.30798 104.11635 34878 ft 461 kts 356°
2026-04-17 11:25 7.37210 104.11477 34878 ft 461 kts 357°
2026-04-17 11:25 7.43622 104.11325 34875 ft 461 kts 357°
2026-04-17 11:26 7.50030 104.11160 34874 ft 461 kts 356°
2026-04-17 11:26 7.56437 104.10976 34873 ft 460 kts 356°
2026-04-17 11:27 7.62841 104.10787 34872 ft 460 kts 356°
2026-04-17 11:27 7.69245 104.10607 34871 ft 460 kts 356°
2026-04-17 11:28 7.75650 104.10432 34871 ft 460 kts 356°
2026-04-17 11:28 7.82054 104.10261 34868 ft 460 kts 356°
2026-04-17 11:29 7.88459 104.10077 34869 ft 460 kts 356°
2026-04-17 11:29 7.94863 104.09887 34871 ft 460 kts 356°
2026-04-17 11:30 8.01269 104.09706 34870 ft 460 kts 356°
2026-04-17 11:30 8.07675 104.09530 34871 ft 460 kts 356°
2026-04-17 11:31 8.14081 104.09342 34874 ft 460 kts 356°
2026-04-17 11:31 8.20486 104.09166 34875 ft 460 kts 356°
2026-04-17 11:32 8.26890 104.08995 34873 ft 460 kts 356°
2026-04-17 11:32 8.33292 104.08810 34876 ft 460 kts 356°
2026-04-17 11:33 8.39692 104.08619 34875 ft 460 kts 356°
2026-04-17 11:33 8.46080 104.08446 34876 ft 460 kts 356°
2026-04-17 11:34 8.52468 104.08274 34894 ft 458 kts 356°
2026-04-17 11:34 8.58824 104.08106 34897 ft 456 kts 356°
2026-04-17 11:35 8.65157 104.07942 34893 ft 455 kts 356°
2026-04-17 11:35 8.68251 104.07857 34274 ft 458 kts 356°
2026-04-17 11:35 8.71531 104.07768 32969 ft 472 kts 356°
2026-04-17 11:36 8.74801 104.07680 31826 ft 480 kts 356°
2026-04-17 11:36 8.78182 104.07593 30955 ft 477 kts 356°
2026-04-17 11:36 8.81456 104.07510 29944 ft 473 kts 356°
2026-04-17 11:36 8.84706 104.07426 29029 ft 465 kts 356°
2026-04-17 11:37 8.87898 104.07343 28136 ft 456 kts 356°
2026-04-17 11:37 8.91047 104.07260 27273 ft 449 kts 356°
2026-04-17 11:37 8.94143 104.07176 26436 ft 441 kts 357°
2026-04-17 11:37 8.97217 104.07095 25621 ft 442 kts 357°
2026-04-17 11:38 9.00304 104.07013 24820 ft 445 kts 357°
2026-04-17 11:38 9.03408 104.06932 24053 ft 446 kts 358°
2026-04-17 11:38 9.06506 104.06854 23278 ft 446 kts 358°
2026-04-17 11:38 9.09599 104.06775 22601 ft 442 kts 358°
2026-04-17 11:39 9.12662 104.06697 21967 ft 436 kts 358°
2026-04-17 11:39 9.15671 104.06619 21353 ft 431 kts 358°
2026-04-17 11:39 9.18652 104.06539 20769 ft 427 kts 358°
2026-04-17 11:39 9.21611 104.06460 20215 ft 423 kts 358°
2026-04-17 11:40 9.24521 104.06382 19705 ft 418 kts 358°
2026-04-17 11:40 9.27425 104.06305 19217 ft 415 kts 358°
2026-04-17 11:40 9.30300 104.06229 18751 ft 412 kts 358°
2026-04-17 11:40 9.33148 104.06153 18283 ft 409 kts 358°
2026-04-17 11:41 9.35995 104.06077 17706 ft 407 kts 358°
2026-04-17 11:41 9.38816 104.06002 17078 ft 406 kts 359°
2026-04-17 11:41 9.41635 104.05925 16455 ft 405 kts 359°
2026-04-17 11:41 9.44419 104.05849 15858 ft 403 kts 359°
2026-04-17 11:42 9.47246 104.05775 15250 ft 402 kts 359°
2026-04-17 11:42 9.50036 104.05703 14665 ft 400 kts 359°
2026-04-17 11:42 9.52796 104.05632 14166 ft 395 kts 360°
2026-04-17 11:42 9.55500 104.05561 13594 ft 392 kts 360°
2026-04-17 11:43 9.58215 104.05490 12879 ft 391 kts 360°
2026-04-17 11:43 9.60943 104.05418 12002 ft 394 kts 360°
2026-04-17 11:43 9.63706 104.05348 11026 ft 399 kts
2026-04-17 11:43 9.66484 104.05276 10228 ft 400 kts
2026-04-17 11:44 9.69216 104.05203 9971 ft 384 kts
2026-04-17 11:44 9.71799 104.05133 9839 ft 365 kts
2026-04-17 11:44 9.74261 104.05064 9839 ft 343 kts
2026-04-17 11:44 9.76561 104.04997 9712 ft 317 kts
2026-04-17 11:45 9.78705 104.04937 9309 ft 303 kts
2026-04-17 11:45 9.80777 104.05031 8691 ft 295 kts 13°
2026-04-17 11:45 9.82704 104.05650 8058 ft 290 kts 28°
2026-04-17 11:45 9.84494 104.06580 7427 ft 287 kts 29°
2026-04-17 11:46 9.86259 104.07500 6843 ft 284 kts 29°
2026-04-17 11:46 9.88007 104.08411 6267 ft 282 kts 29°
2026-04-17 11:46 9.89753 104.09318 5957 ft 279 kts 29°
2026-04-17 11:46 9.91436 104.10193 5836 ft 277 kts 29°
2026-04-17 11:47 9.93161 104.11090 5710 ft 278 kts 29°
2026-04-17 11:47 9.94881 104.11984 5590 ft 278 kts 29°
2026-04-17 11:47 9.96596 104.12877 5470 ft 278 kts 29°
2026-04-17 11:47 9.98320 104.13773 5342 ft 278 kts 29°
2026-04-17 11:48 10.00013 104.14653 5283 ft 268 kts 30°
2026-04-17 11:48 10.01649 104.15503 5169 ft 259 kts 29°
2026-04-17 11:48 10.03245 104.16281 5044 ft 252 kts 21°
2026-04-17 11:48 10.04363 104.16563 4907 ft 250 kts
2026-04-17 11:49 10.06686 104.16805 4489 ft 249 kts
2026-04-17 11:49 10.07823 104.16919 4294 ft 248 kts
2026-04-17 11:49 10.10111 104.17146 3911 ft 246 kts
2026-04-17 11:49 10.11233 104.17257 3731 ft 244 kts
2026-04-17 11:50 10.13484 104.17412 3326 ft 238 kts 353°
2026-04-17 11:50 10.14492 104.17061 3156 ft 227 kts 324°
2026-04-17 11:50 10.15364 104.15864 2894 ft 209 kts 281°
2026-04-17 11:50 10.15520 104.14431 2653 ft 198 kts 272°
2026-04-17 11:51 10.15634 104.13081 2356 ft 188 kts 272°
2026-04-17 11:51 10.15750 104.11801 2092 ft 174 kts 274°
2026-04-17 11:51 10.15862 104.10646 1888 ft 154 kts 274°
2026-04-17 11:51 10.15960 104.09644 1693 ft 143 kts 274°
2026-04-17 11:52 10.16058 104.08658 1516 ft 138 kts 273°
2026-04-17 11:52 10.16153 104.07688 1331 ft 139 kts 273°
2026-04-17 11:52 10.16250 104.06710 1154 ft 139 kts 274°
2026-04-17 11:52 10.16346 104.05748 981 ft 136 kts 272°
2026-04-17 11:53 10.16441 104.04788 820 ft 138 kts 274°
2026-04-17 11:53 10.16536 104.03834 656 ft 136 kts 273°
2026-04-17 11:53 10.16632 104.02865 483 ft 138 kts 272°
2026-04-17 11:53 10.16729 104.01882 308 ft 141 kts 273°
2026-04-17 11:54 10.16827 104.00891 125 ft 142 kts 273°
2026-04-17 11:54 10.16912 103.99948 26 ft 123 kts 274°
2026-04-17 11:54 10.16976 103.99383 24 ft 32 kts 278°
2026-04-17 11:54 10.16950 103.99316 22 ft 9 kts 214°
2026-04-17 11:55 10.16884 103.99301 22 ft 11 kts 186°
2026-04-17 11:55 10.16819 103.99316 22 ft 11 kts 129°
2026-04-17 11:55 10.16802 103.99395 22 ft 13 kts 94°
2026-04-17 11:55 10.16792 103.99492 22 ft 15 kts 95°
2026-04-17 11:56 10.16781 103.99605 23 ft 17 kts 97°
2026-04-17 11:56 10.16768 103.99730 23 ft 19 kts 95°
2026-04-17 11:56 10.16763 103.99777 23 ft 6 kts 96°
2026-04-17 11:56 10.16744 103.99847 23 ft 12 kts 140°
2026-04-17 11:57 10.16659 103.99851 23 ft 14 kts 186°
2026-04-17 11:57 10.16553 103.99838 23 ft 17 kts 192°
2026-04-17 11:57 10.16469 103.99822 23 ft 11 kts 185°
2026-04-17 11:57 10.16420 103.99819 23 ft 0 kts 185°